Location: Newark
(44.4156°N, 12.1972°E)
Time: 10:12:40
(UTC+00:00)

STARLINK-1100 - Pass Details

Date: 30 January 2020
Orbit: 348 x 351 km, 53.0° (Epoch: 18 February)

Event Time Altitude Azimuth Distance (km) Brightness Sun altitude
Rises 16:38:10 0° 307° (NW) 2,168 7.2 -4.4°
Reaches altitude 10° 16:40:25 10° 322° (NW) 1,323 5.8 -4.7°
Maximum altitude 16:42:54 24° 19° (NNE) 787 4.1 -5.1°
Drops below altitude 10° 16:45:23 10° 76° (ENE) 1,321 4.9 -5.6°
Enters shadow 16:46:00 - 82° (E) 1,539 5.3 -5.7°
